This is the latest recevied weather packets stored in our database for station/object N1TKS. If no packets are shown the sender has not sent any weather packets the latest 10 day(s).
| Time | Temp. | Humidity | Pressure | Rain* | Wind** | Luminosity | Snow |
|---|---|---|---|---|---|---|---|
| 1777482413 | 15° C | 65% | 1014.9 hPa | 0 mm | - | - | - |
| 1777482119 | 15.56° C | 69% | 1014.9 hPa | 0 mm | - | - | - |
| 1777481814 | 15° C | 72% | 1015 hPa | 0 mm | - | - | - |
| 1777481213 | 15° C | 70% | 1015.2 hPa | 0 mm | - | - | - |
| 1777480615 | 15° C | 69% | 1015.1 hPa | 0 mm | - | - | - |
| 1777480315 | 15° C | 68% | 1015.1 hPa | 0 mm | - | - | - |
| 1777480135 | 15° C | 69% | 1015.2 hPa | 0 mm | - | - | - |
| 1777480013 | 15° C | 69% | 1015.2 hPa | 0 mm | - | - | - |
| 1777479807 | 15° C | 67% | 1015.3 hPa | 0 mm | - | - | - |
| 1777479714 | 15° C | 67% | 1015.3 hPa | 0 mm | - | - | - |
| 1777479414 | 15° C | 69% | 1015.3 hPa | 0 mm | - | - | - |
| 1777478818 | 14.44° C | 69% | 1015.5 hPa | 0 mm | - | - | - |
| 1777478213 | 14.44° C | 71% | 1015.7 hPa | 0 mm | - | - | - |
| 1777477319 | 14.44° C | 72% | 1015.6 hPa | 0 mm | - | - | - |
| 1777477211 | 14.44° C | 70% | 1015.7 hPa | 0 mm | - | - | - |
| 1777477114 | 14.44° C | 70% | 1015.7 hPa | 0 mm | - | - | - |
| 1777477014 | 14.44° C | 70% | 1015.7 hPa | 0 mm | - | - | - |
| 1777476805 | 14.44° C | 70% | 1015.8 hPa | 0 mm | - | - | - |
| 1777476713 | 14.44° C | 70% | 1015.8 hPa | 0 mm | - | - | - |
| 1777476533 | 14.44° C | 70% | 1015.9 hPa | 0 mm | - | - | - |
| 1777476519 | 15° C | 69% | 1015.7 hPa | 0 mm | - | - | - |
| 1777476413 | 15° C | 69% | 1015.7 hPa | 0 mm | - | - | - |
| 1777475624 | 15° C | 71% | 1015.9 hPa | 0 mm | - | - | - |
| 1777475573 | 15° C | 71% | 1015.9 hPa | 0 mm | - | - | - |
| 1777475514 | 15° C | 71% | 1015.9 hPa | 0 mm | - | - | - |
* Rain latest hour (hover to see other rain measurements)
** Current wind speed in m/s (hover to see current wind gust speed)